Wetterdaten: Mittwoch, 02.12.2015
Datum Zeit Auen-Temp. Temp gefhlt Luftfeuchte Luftdruck Regen Wind Richtung Richtung Taupunkt Windben
02.12.2015 00:00 6,6 C 6,6 C 77 % 1030,8 hPa 0,0 mm 0,3 km/h (0 Bft) O-SO 112 2,9 C 0,0 km/h (0 Bft)
02.12.2015 00:05 6,6 C 6,6 C 78 % 1030,8 hPa 0,0 mm 0,3 km/h (0 Bft) S-SO 157 3,0 C 0,0 km/h (0 Bft)
02.12.2015 00:10 6,6 C 6,5 C 78 % 1030,8 hPa 0,0 mm 0,0 km/h (0 Bft) SW 225 3,0 C 0,0 km/h (0 Bft)
02.12.2015 00:15 6,6 C 6,5 C 78 % 1030,9 hPa 0,0 mm 0,0 km/h (0 Bft) SW 225 3,0 C 0,0 km/h (0 Bft)
02.12.2015 00:20 6,5 C 6,4 C 78 % 1030,9 hPa 0,0 mm 1,6 km/h (1 Bft) SW 225 2,9 C 0,0 km/h (0 Bft)
02.12.2015 00:25 6,5 C 6,4 C 78 % 1030,9 hPa 0,0 mm 1,6 km/h (1 Bft) S 180 2,9 C 0,0 km/h (0 Bft)
02.12.2015 00:30 6,5 C 6,4 C 78 % 1030,9 hPa 0,0 mm 0,8 km/h (0 Bft) W-NW 292 2,9 C 0,0 km/h (0 Bft)
02.12.2015 00:35 6,4 C 6,3 C 77 % 1031,0 hPa 0,0 mm 0,3 km/h (0 Bft) W 270 2,7 C 0,0 km/h (0 Bft)
02.12.2015 00:40 6,3 C 6,2 C 77 % 1031,0 hPa 0,0 mm 0,3 km/h (0 Bft) W-SW 247 2,6 C 3,6 km/h (1 Bft)
02.12.2015 00:45 6,2 C 6,2 C 77 % 1031,0 hPa 0,0 mm 0,3 km/h (0 Bft) S-SW 202 2,5 C 0,0 km/h (0 Bft)
02.12.2015 00:50 6,3 C 6,2 C 78 % 1031,0 hPa 0,0 mm 1,6 km/h (1 Bft) SW 225 2,8 C 6,5 km/h (2 Bft)
02.12.2015 00:55 6,3 C 6,2 C 78 % 1031,0 hPa 0,0 mm 3,4 km/h (1 Bft) SW 225 2,8 C 9,6 km/h (2 Bft)
02.12.2015 01:00 6,1 C 6,0 C 78 % 1031,0 hPa 0,0 mm 4,9 km/h (1 Bft) W-SW 247 2,6 C 10,1 km/h (2 Bft)
02.12.2015 01:05 5,8 C 5,8 C 78 % 1031,0 hPa 0,0 mm 4,1 km/h (1 Bft) S 180 2,3 C 3,4 km/h (1 Bft)
02.12.2015 01:10 5,4 C 5,4 C 78 % 1031,0 hPa 0,0 mm 1,0 km/h (0 Bft) SW 225 1,9 C 0,0 km/h (0 Bft)
02.12.2015 01:15 5,4 C 5,3 C 78 % 1030,8 hPa 0,0 mm 1,0 km/h (0 Bft) W-SW 247 1,9 C 3,1 km/h (1 Bft)
02.12.2015 01:20 5,4 C 5,2 C 79 % 1030,8 hPa 0,0 mm 2,1 km/h (1 Bft) W-SW 247 2,1 C 3,9 km/h (1 Bft)
02.12.2015 01:25 5,3 C 5,1 C 79 % 1030,8 hPa 0,0 mm 2,8 km/h (1 Bft) W-SW 247 2,0 C 4,9 km/h (1 Bft)
02.12.2015 01:30 5,4 C 5,2 C 79 % 1030,8 hPa 0,0 mm 4,9 km/h (1 Bft) SW 225 2,1 C 10,4 km/h (2 Bft)
02.12.2015 01:35 5,3 C 5,0 C 79 % 1030,7 hPa 0,0 mm 6,0 km/h (2 Bft) SW 225 2,0 C 6,7 km/h (2 Bft)
02.12.2015 01:40 5,2 C 4,9 C 79 % 1030,7 hPa 0,0 mm 6,0 km/h (2 Bft) SW 225 1,9 C 8,3 km/h (2 Bft)
02.12.2015 01:45 5,1 C 4,9 C 79 % 1030,7 hPa 0,0 mm 4,9 km/h (1 Bft) O-SO 112 1,8 C 5,2 km/h (1 Bft)
02.12.2015 01:50 5,0 C 4,8 C 79 % 1030,7 hPa 0,0 mm 4,7 km/h (1 Bft) S-SO 157 1,7 C 5,4 km/h (1 Bft)
02.12.2015 01:55 4,9 C 4,6 C 80 % 1030,5 hPa 0,0 mm 4,9 km/h (1 Bft) SW 225 1,7 C 7,3 km/h (2 Bft)
02.12.2015 02:00 4,8 C 4,5 C 80 % 1030,5 hPa 0,0 mm 5,2 km/h (1 Bft) W 270 1,6 C 8,5 km/h (2 Bft)
02.12.2015 02:05 4,7 C 4,4 C 80 % 1030,5 hPa 0,0 mm 5,7 km/h (1 Bft) W-SW 247 1,6 C 11,4 km/h (2 Bft)
02.12.2015 02:10 4,5 C 4,3 C 81 % 1030,5 hPa 0,0 mm 4,4 km/h (1 Bft) W-SW 247 1,5 C 8,3 km/h (2 Bft)
02.12.2015 02:15 4,5 C 4,2 C 81 % 1030,3 hPa 0,0 mm 3,6 km/h (1 Bft) W-SW 247 1,5 C 5,4 km/h (1 Bft)
02.12.2015 02:20 4,7 C 4,3 C 82 % 1030,3 hPa 0,0 mm 5,4 km/h (1 Bft) SW 225 1,9 C 7,0 km/h (2 Bft)
02.12.2015 02:25 4,7 C 4,2 C 82 % 1030,3 hPa 0,0 mm 6,2 km/h (2 Bft) W 270 1,9 C 8,5 km/h (2 Bft)
02.12.2015 02:30 4,4 C 4,2 C 82 % 1030,3 hPa 0,0 mm 4,1 km/h (1 Bft) S-SW 202 1,6 C 5,7 km/h (1 Bft)
02.12.2015 02:35 4,4 C 4,1 C 82 % 1030,5 hPa 0,0 mm 2,3 km/h (1 Bft) S 180 1,6 C 9,6 km/h (2 Bft)
02.12.2015 02:40 4,6 C 4,3 C 82 % 1030,5 hPa 0,0 mm 4,7 km/h (1 Bft) W-SW 247 1,8 C 7,5 km/h (2 Bft)
02.12.2015 02:45 4,5 C 4,1 C 82 % 1030,5 hPa 0,0 mm 4,9 km/h (1 Bft) W-SW 247 1,7 C 0,0 km/h (0 Bft)
02.12.2015 02:50 4,4 C 4,1 C 82 % 1030,5 hPa 0,0 mm 3,6 km/h (1 Bft) SW 225 1,6 C 4,1 km/h (1 Bft)
02.12.2015 02:55 4,3 C 4,0 C 82 % 1030,2 hPa 0,0 mm 2,8 km/h (1 Bft) W-SW 247 1,5 C 0,0 km/h (0 Bft)
02.12.2015 03:00 4,3 C 4,0 C 82 % 1030,2 hPa 0,0 mm 2,3 km/h (1 Bft) W-SW 247 1,5 C 3,6 km/h (1 Bft)
02.12.2015 03:05 4,2 C 3,9 C 83 % 1030,2 hPa 0,0 mm 2,3 km/h (1 Bft) SW 225 1,6 C 4,7 km/h (1 Bft)
02.12.2015 03:10 4,2 C 3,9 C 83 % 1030,2 hPa 0,0 mm 3,4 km/h (1 Bft) SW 225 1,6 C 8,3 km/h (2 Bft)
02.12.2015 03:15 4,3 C 4,0 C 83 % 1030,3 hPa 0,0 mm 4,1 km/h (1 Bft) S 180 1,7 C 7,0 km/h (2 Bft)
02.12.2015 03:20 4,3 C 3,9 C 83 % 1030,3 hPa 0,0 mm 4,9 km/h (1 Bft) SW 225 1,7 C 3,9 km/h (1 Bft)
02.12.2015 03:25 4,3 C 3,9 C 84 % 1030,3 hPa 0,0 mm 4,9 km/h (1 Bft) W-SW 247 1,8 C 6,0 km/h (2 Bft)
02.12.2015 03:30 4,1 C 3,8 C 83 % 1030,3 hPa 0,0 mm 3,6 km/h (1 Bft) W-SW 247 1,5 C 3,6 km/h (1 Bft)
02.12.2015 03:35 3,8 C 3,6 C 84 % 1030,5 hPa 0,0 mm 2,1 km/h (1 Bft) S-SO 157 1,4 C 0,0 km/h (0 Bft)
02.12.2015 03:40 3,2 C 3,0 C 83 % 1030,5 hPa 0,0 mm 0,5 km/h (0 Bft) S-SO 157 0,6 C 0,0 km/h (0 Bft)
02.12.2015 03:45 3,5 C 3,1 C 84 % 1030,5 hPa 0,0 mm 0,0 km/h (0 Bft) S-SW 202 1,1 C 0,0 km/h (0 Bft)
02.12.2015 03:50 3,8 C 3,3 C 85 % 1030,5 hPa 0,0 mm 1,3 km/h (1 Bft) S-SW 202 1,5 C 2,8 km/h (1 Bft)
02.12.2015 03:55 3,8 C 3,4 C 85 % 1030,2 hPa 0,0 mm 2,8 km/h (1 Bft) SW 225 1,5 C 5,2 km/h (1 Bft)
02.12.2015 04:00 3,8 C 3,5 C 86 % 1030,2 hPa 0,0 mm 3,1 km/h (1 Bft) S 180 1,7 C 0,0 km/h (0 Bft)
02.12.2015 04:05 3,3 C 3,1 C 85 % 1030,2 hPa 0,0 mm 1,8 km/h (1 Bft) S-SW 202 1,0 C 0,0 km/h (0 Bft)
02.12.2015 04:10 3,3 C 3,2 C 81 % 1030,2 hPa 0,0 mm 1,0 km/h (0 Bft) S 180 0,4 C 4,1 km/h (1 Bft)
02.12.2015 04:15 3,0 C 2,9 C 85 % 1030,2 hPa 0,0 mm 1,3 km/h (1 Bft) W-SW 247 0,7 C 0,0 km/h (0 Bft)
02.12.2015 04:20 2,6 C 2,6 C 85 % 1030,2 hPa 0,0 mm 0,5 km/h (0 Bft) W-SW 247 0,3 C 0,0 km/h (0 Bft)
02.12.2015 04:25 2,6 C 2,5 C 85 % 1030,2 hPa 0,0 mm 0,0 km/h (0 Bft) SO 135 0,3 C 0,0 km/h (0 Bft)
02.12.2015 04:30 2,6 C 2,5 C 85 % 1030,2 hPa 0,0 mm 0,0 km/h (0 Bft) SO 135 0,3 C 0,0 km/h (0 Bft)
02.12.2015 04:35 2,7 C 2,6 C 85 % 1030,3 hPa 0,0 mm 0,0 km/h (0 Bft) SO 135 0,4 C 0,0 km/h (0 Bft)
02.12.2015 04:40 2,9 C 2,8 C 86 % 1030,3 hPa 0,0 mm 0,0 km/h (0 Bft) SO 135 0,8 C 0,0 km/h (0 Bft)
02.12.2015 04:45 3,0 C 3,0 C 81 % 1030,3 hPa 0,0 mm 0,0 km/h (0 Bft) SO 135 0,1 C 0,0 km/h (0 Bft)
02.12.2015 04:50 3,0 C 3,0 C 85 % 1030,3 hPa 0,0 mm 0,0 km/h (0 Bft) NW 315 0,7 C 0,0 km/h (0 Bft)
02.12.2015 04:55 2,9 C 2,9 C 86 % 1030,1 hPa 0,0 mm 0,0 km/h (0 Bft) NW 315 0,8 C 0,0 km/h (0 Bft)
02.12.2015 05:00 2,9 C 3,0 C 83 % 1030,1 hPa 0,0 mm 0,0 km/h (0 Bft) W-NW 292 0,3 C 0,0 km/h (0 Bft)
02.12.2015 05:05 3,1 C 3,1 C 82 % 1030,1 hPa 0,0 mm 0,0 km/h (0 Bft) NW 315 0,3 C 0,0 km/h (0 Bft)
02.12.2015 05:10 3,2 C 3,3 C 82 % 1030,1 hPa 0,0 mm 0,0 km/h (0 Bft) W-NW 292 0,4 C 0,0 km/h (0 Bft)
02.12.2015 05:15 3,3 C 3,4 C 82 % 1029,9 hPa 0,0 mm 0,0 km/h (0 Bft) W-NW 292 0,5 C 0,0 km/h (0 Bft)
02.12.2015 05:20 3,4 C 3,6 C 82 % 1029,9 hPa 0,0 mm 0,0 km/h (0 Bft) W 270 0,6 C 0,0 km/h (0 Bft)
02.12.2015 05:25 3,8 C 3,9 C 83 % 1029,9 hPa 0,0 mm 0,0 km/h (0 Bft) W-SW 247 1,2 C 2,6 km/h (1 Bft)
02.12.2015 05:30 4,3 C 4,3 C 83 % 1029,9 hPa 0,0 mm 0,3 km/h (0 Bft) W-SW 247 1,7 C 0,0 km/h (0 Bft)
02.12.2015 05:35 4,3 C 4,3 C 87 % 1029,9 hPa 0,0 mm 0,3 km/h (0 Bft) W-SW 247 2,3 C 0,0 km/h (0 Bft)
02.12.2015 05:40 4,1 C 4,3 C 86 % 1029,9 hPa 0,0 mm 0,0 km/h (0 Bft) W-NW 292 2,0 C 0,0 km/h (0 Bft)
02.12.2015 05:45 4,1 C 4,3 C 86 % 1029,9 hPa 0,0 mm 0,0 km/h (0 Bft) W-NW 292 2,0 C 0,0 km/h (0 Bft)
02.12.2015 05:46 4,1 C 4,3 C 86 % 1029,9 hPa 0,0 mm 0,3 km/h (0 Bft) W-SW 247 2,0 C 0,0 km/h (0 Bft)
02.12.2015 05:49 4,1 C 4,3 C 86 % 1029,9 hPa 0,0 mm 0,3 km/h (0 Bft) W-SW 247 2,0 C 0,0 km/h (0 Bft)
02.12.2015 05:55 4,3 C 4,3 C 86 % 1030,0 hPa 0,0 mm 0,5 km/h (0 Bft) S 180 2,2 C 3,9 km/h (1 Bft)
02.12.2015 06:00 4,6 C 4,6 C 86 % 1030,0 hPa 0,0 mm 1,3 km/h (1 Bft) S 180 2,5 C 2,8 km/h (1 Bft)
02.12.2015 06:05 4,7 C 4,7 C 86 % 1030,0 hPa 0,0 mm 1,8 km/h (1 Bft) W-SW 247 2,6 C 7,5 km/h (2 Bft)
02.12.2015 06:10 4,8 C 4,8 C 86 % 1030,0 hPa 0,0 mm 2,1 km/h (1 Bft) W-SW 247 2,7 C 3,4 km/h (1 Bft)
02.12.2015 06:15 4,8 C 4,8 C 86 % 1030,0 hPa 0,0 mm 2,1 km/h (1 Bft) W 270 2,7 C 0,0 km/h (0 Bft)
02.12.2015 06:20 4,9 C 4,9 C 86 % 1030,0 hPa 0,0 mm 1,8 km/h (1 Bft) W-SW 247 2,8 C 5,2 km/h (1 Bft)
02.12.2015 06:25 4,8 C 4,8 C 86 % 1030,0 hPa 0,0 mm 2,3 km/h (1 Bft) W 270 2,7 C 4,7 km/h (1 Bft)
02.12.2015 06:30 4,8 C 4,8 C 86 % 1030,0 hPa 0,0 mm 1,6 km/h (1 Bft) W 270 2,7 C 0,0 km/h (0 Bft)
02.12.2015 06:35 4,8 C 4,8 C 86 % 1029,9 hPa 0,0 mm 0,5 km/h (0 Bft) W-SW 247 2,7 C 0,0 km/h (0 Bft)
02.12.2015 06:40 4,8 C 4,8 C 86 % 1029,9 hPa 0,0 mm 1,0 km/h (0 Bft) W 270 2,7 C 5,2 km/h (1 Bft)
02.12.2015 06:45 4,9 C 4,9 C 86 % 1029,9 hPa 0,0 mm 2,1 km/h (1 Bft) W 270 2,8 C 5,4 km/h (1 Bft)
02.12.2015 06:50 4,9 C 4,9 C 86 % 1029,9 hPa 0,0 mm 2,8 km/h (1 Bft) S-SW 202 2,8 C 0,0 km/h (0 Bft)
02.12.2015 06:55 5,0 C 5,0 C 85 % 1030,3 hPa 0,0 mm 1,8 km/h (1 Bft) W-SW 247 2,7 C 0,0 km/h (0 Bft)
02.12.2015 07:00 5,0 C 5,0 C 85 % 1030,3 hPa 0,0 mm 0,3 km/h (0 Bft) W 270 2,7 C 0,0 km/h (0 Bft)
02.12.2015 07:05 5,0 C 5,0 C 85 % 1030,3 hPa 0,0 mm 0,3 km/h (0 Bft) W-SW 247 2,7 C 0,0 km/h (0 Bft)
02.12.2015 07:10 5,0 C 5,0 C 85 % 1030,3 hPa 0,0 mm 1,6 km/h (1 Bft) S-SW 202 2,7 C 8,0 km/h (2 Bft)
02.12.2015 07:15 5,0 C 5,0 C 85 % 1030,3 hPa 0,0 mm 2,8 km/h (1 Bft) O-NO 67 2,7 C 4,7 km/h (1 Bft)
02.12.2015 07:20 5,0 C 5,0 C 85 % 1030,3 hPa 0,0 mm 3,9 km/h (1 Bft) W-SW 247 2,7 C 0,0 km/h (0 Bft)
02.12.2015 07:25 5,0 C 5,0 C 85 % 1030,3 hPa 0,0 mm 3,1 km/h (1 Bft) W-SW 247 2,7 C 0,0 km/h (0 Bft)
02.12.2015 07:30 4,9 C 4,9 C 85 % 1030,3 hPa 0,0 mm 0,8 km/h (0 Bft) S 180 2,6 C 0,0 km/h (0 Bft)
02.12.2015 07:35 4,9 C 4,9 C 85 % 1030,4 hPa 0,0 mm 1,0 km/h (0 Bft) S 180 2,6 C 0,0 km/h (0 Bft)
02.12.2015 07:40 4,8 C 4,8 C 85 % 1030,4 hPa 0,0 mm 1,0 km/h (0 Bft) S 180 2,5 C 0,0 km/h (0 Bft)
02.12.2015 07:45 4,6 C 4,6 C 85 % 1030,4 hPa 0,0 mm 0,3 km/h (0 Bft) S 180 2,3 C 0,0 km/h (0 Bft)
02.12.2015 07:50 4,6 C 4,5 C 85 % 1030,4 hPa 0,0 mm 0,0 km/h (0 Bft) S 180 2,3 C 0,0 km/h (0 Bft)
02.12.2015 07:55 4,7 C 4,5 C 86 % 1030,2 hPa 0,0 mm 0,0 km/h (0 Bft) S 180 2,6 C 0,0 km/h (0 Bft)
02.12.2015 08:00 4,6 C 4,4 C 86 % 1030,2 hPa 0,0 mm 0,0 km/h (0 Bft) S 180 2,5 C 0,0 km/h (0 Bft)
02.12.2015 08:05 4,4 C 4,3 C 86 % 1030,2 hPa 0,0 mm 0,0 km/h (0 Bft) S 180 2,3 C 0,0 km/h (0 Bft)
02.12.2015 08:10 4,2 C 4,0 C 86 % 1030,2 hPa 0,0 mm 0,0 km/h (0 Bft) S 180 2,1 C 0,0 km/h (0 Bft)
02.12.2015 08:15 4,2 C 4,0 C 86 % 1030,5 hPa 0,0 mm 0,0 km/h (0 Bft) S 180 2,1 C 0,0 km/h (0 Bft)
02.12.2015 08:20 4,1 C 4,0 C 86 % 1030,5 hPa 0,0 mm 0,0 km/h (0 Bft) N-NW 337 2,0 C 0,0 km/h (0 Bft)
02.12.2015 08:25 4,1 C 4,0 C 86 % 1030,5 hPa 0,0 mm 0,0 km/h (0 Bft) NW 315 2,0 C 0,0 km/h (0 Bft)
02.12.2015 08:30 4,3 C 4,3 C 82 % 1030,5 hPa 0,0 mm 0,0 km/h (0 Bft) W-NW 292 1,5 C 0,0 km/h (0 Bft)
02.12.2015 08:35 4,3 C 4,4 C 82 % 1030,5 hPa 0,0 mm 0,0 km/h (0 Bft) W-NW 292 1,5 C 0,0 km/h (0 Bft)
02.12.2015 08:40 4,4 C 4,5 C 83 % 1030,5 hPa 0,0 mm 0,0 km/h (0 Bft) S-SW 202 1,8 C 0,0 km/h (0 Bft)
02.12.2015 08:45 4,4 C 4,6 C 83 % 1030,5 hPa 0,0 mm 0,0 km/h (0 Bft) W 270 1,8 C 0,0 km/h (0 Bft)
02.12.2015 08:50 4,4 C 4,7 C 83 % 1030,5 hPa 0,0 mm 0,0 km/h (0 Bft) W 270 1,8 C 0,0 km/h (0 Bft)
02.12.2015 08:55 4,6 C 4,8 C 83 % 1030,6 hPa 0,0 mm 0,0 km/h (0 Bft) W-SW 247 2,0 C 0,0 km/h (0 Bft)
02.12.2015 09:00 4,7 C 5,0 C 83 % 1030,6 hPa 0,0 mm 0,0 km/h (0 Bft) W 270 2,1 C 0,0 km/h (0 Bft)
02.12.2015 09:05 4,7 C 5,1 C 83 % 1030,6 hPa 0,0 mm 0,0 km/h (0 Bft) W 270 2,1 C 0,0 km/h (0 Bft)
02.12.2015 09:10 4,8 C 5,1 C 83 % 1030,6 hPa 0,0 mm 0,0 km/h (0 Bft) S 180 2,2 C 0,0 km/h (0 Bft)
02.12.2015 09:15 4,8 C 5,2 C 83 % 1030,5 hPa 0,0 mm 0,0 km/h (0 Bft) S 180 2,2 C 0,0 km/h (0 Bft)
02.12.2015 09:20 4,9 C 5,3 C 83 % 1030,5 hPa 0,0 mm 0,0 km/h (0 Bft) W-SW 247 2,3 C 0,0 km/h (0 Bft)
02.12.2015 09:25 5,0 C 5,4 C 83 % 1030,5 hPa 0,0 mm 0,0 km/h (0 Bft) W-SW 247 2,4 C 0,0 km/h (0 Bft)
02.12.2015 09:30 5,0 C 5,6 C 83 % 1030,5 hPa 0,0 mm 0,0 km/h (0 Bft) W-SW 247 2,4 C 0,0 km/h (0 Bft)
02.12.2015 09:35 5,1 C 5,6 C 82 % 1030,7 hPa 0,0 mm 0,0 km/h (0 Bft) NW 315 2,3 C 0,0 km/h (0 Bft)
02.12.2015 09:40 5,2 C 5,7 C 82 % 1030,7 hPa 0,0 mm 0,0 km/h (0 Bft) N-NW 337 2,4 C 0,0 km/h (0 Bft)
02.12.2015 09:45 5,2 C 5,7 C 82 % 1030,7 hPa 0,0 mm 0,0 km/h (0 Bft) N-NW 337 2,4 C 0,0 km/h (0 Bft)
02.12.2015 09:50 5,2 C 5,8 C 82 % 1030,7 hPa 0,0 mm 0,3 km/h (0 Bft) W-NW 292 2,4 C 0,0 km/h (0 Bft)
02.12.2015 09:55 5,3 C 5,9 C 82 % 1030,8 hPa 0,0 mm 0,8 km/h (0 Bft) N-NW 337 2,5 C 4,1 km/h (1 Bft)
02.12.2015 10:00 5,3 C 5,9 C 82 % 1030,8 hPa 0,0 mm 0,5 km/h (0 Bft) W-NW 292 2,5 C 0,0 km/h (0 Bft)
02.12.2015 10:05 5,4 C 6,0 C 82 % 1030,8 hPa 0,0 mm 0,5 km/h (0 Bft) N-NW 337 2,6 C 0,0 km/h (0 Bft)
02.12.2015 10:10 5,4 C 6,1 C 82 % 1030,8 hPa 0,0 mm 0,0 km/h (0 Bft) N-NO 22 2,6 C 0,0 km/h (0 Bft)
02.12.2015 10:15 5,5 C 6,1 C 82 % 1030,8 hPa 0,0 mm 0,0 km/h (0 Bft) N-NO 22 2,7 C 0,0 km/h (0 Bft)
02.12.2015 10:20 5,5 C 6,2 C 82 % 1030,8 hPa 0,0 mm 0,3 km/h (0 Bft) NW 315 2,7 C 0,0 km/h (0 Bft)
02.12.2015 10:25 5,6 C 6,2 C 82 % 1030,8 hPa 0,0 mm 0,8 km/h (0 Bft) O-NO 67 2,8 C 4,4 km/h (1 Bft)
02.12.2015 10:30 5,5 C 6,2 C 82 % 1030,8 hPa 0,0 mm 1,3 km/h (1 Bft) O 90 2,7 C 0,0 km/h (0 Bft)
02.12.2015 10:35 5,5 C 6,2 C 82 % 1030,8 hPa 0,0 mm 1,3 km/h (1 Bft) O-NO 67 2,7 C 3,4 km/h (1 Bft)
02.12.2015 10:40 5,6 C 6,2 C 82 % 1030,8 hPa 0,0 mm 1,0 km/h (0 Bft) NO 45 2,8 C 0,0 km/h (0 Bft)
02.12.2015 10:45 5,6 C 6,3 C 82 % 1030,8 hPa 0,0 mm 1,6 km/h (1 Bft) O-NO 67 2,8 C 4,4 km/h (1 Bft)
02.12.2015 10:50 5,7 C 6,4 C 82 % 1030,8 hPa 0,0 mm 1,0 km/h (0 Bft) O-NO 67 2,9 C 2,6 km/h (1 Bft)
02.12.2015 10:55 5,7 C 6,5 C 82 % 1030,5 hPa 0,0 mm 2,1 km/h (1 Bft) N-NW 337 2,9 C 0,0 km/h (0 Bft)
02.12.2015 11:00 5,8 C 6,6 C 82 % 1030,5 hPa 0,0 mm 2,6 km/h (1 Bft) NO 45 3,0 C 5,2 km/h (1 Bft)
02.12.2015 11:05 5,9 C 6,7 C 82 % 1030,5 hPa 0,0 mm 2,8 km/h (1 Bft) O-SO 112 3,1 C 3,6 km/h (1 Bft)
02.12.2015 11:10 5,9 C 6,8 C 82 % 1030,5 hPa 0,0 mm 3,1 km/h (1 Bft) O-NO 67 3,1 C 0,0 km/h (0 Bft)
02.12.2015 11:15 6,0 C 7,0 C 81 % 1030,7 hPa 0,0 mm 2,1 km/h (1 Bft) N-NO 22 3,0 C 3,4 km/h (1 Bft)
02.12.2015 11:20 6,1 C 7,1 C 80 % 1030,7 hPa 0,0 mm 1,8 km/h (1 Bft) O-NO 67 2,9 C 4,4 km/h (1 Bft)
02.12.2015 11:25 6,1 C 7,0 C 80 % 1030,7 hPa 0,0 mm 3,1 km/h (1 Bft) O-NO 67 2,9 C 10,1 km/h (2 Bft)
02.12.2015 11:30 6,0 C 6,9 C 80 % 1030,7 hPa 0,0 mm 4,9 km/h (1 Bft) O-NO 67 2,8 C 5,2 km/h (1 Bft)
02.12.2015 11:35 6,0 C 6,8 C 81 % 1030,5 hPa 0,0 mm 5,4 km/h (1 Bft) NO 45 3,0 C 4,9 km/h (1 Bft)
02.12.2015 11:40 6,0 C 6,8 C 81 % 1030,5 hPa 0,0 mm 4,7 km/h (1 Bft) N-NO 22 3,0 C 0,0 km/h (0 Bft)
02.12.2015 11:45 6,1 C 6,9 C 81 % 1030,5 hPa 0,0 mm 3,1 km/h (1 Bft) N-NO 22 3,1 C 3,1 km/h (1 Bft)
02.12.2015 11:46 6,0 C 6,9 C 80 % 1030,5 hPa 0,0 mm 2,3 km/h (1 Bft) NO 45 2,8 C 9,8 km/h (2 Bft)
02.12.2015 11:50 6,0 C 6,9 C 80 % 1030,5 hPa 0,0 mm 2,3 km/h (1 Bft) NO 45 2,8 C 9,8 km/h (2 Bft)
02.12.2015 11:55 5,9 C 6,8 C 82 % 1030,5 hPa 0,0 mm 4,7 km/h (1 Bft) O-NO 67 3,1 C 7,5 km/h (2 Bft)
02.12.2015 12:00 5,9 C 6,8 C 82 % 1030,5 hPa 0,0 mm 3,9 km/h (1 Bft) NW 315 3,1 C 0,0 km/h (0 Bft)
02.12.2015 12:05 6,0 C 6,9 C 81 % 1030,5 hPa 0,0 mm 1,3 km/h (1 Bft) NW 315 3,0 C 0,0 km/h (0 Bft)
02.12.2015 12:10 6,0 C 7,0 C 81 % 1030,5 hPa 0,0 mm 0,0 km/h (0 Bft) NO 45 3,0 C 0,0 km/h (0 Bft)
02.12.2015 12:15 6,1 C 7,0 C 81 % 1030,5 hPa 0,0 mm 0,8 km/h (0 Bft) NO 45 3,1 C 0,0 km/h (0 Bft)
02.12.2015 12:20 6,1 C 7,1 C 81 % 1030,5 hPa 0,0 mm 1,6 km/h (1 Bft) O-NO 67 3,1 C 0,0 km/h (0 Bft)
02.12.2015 12:25 6,1 C 7,1 C 81 % 1030,5 hPa 0,0 mm 2,8 km/h (1 Bft) O-NO 67 3,1 C 8,5 km/h (2 Bft)
02.12.2015 12:30 6,1 C 7,0 C 80 % 1030,5 hPa 0,0 mm 4,7 km/h (1 Bft) NO 45 2,9 C 6,0 km/h (2 Bft)
02.12.2015 12:35 6,0 C 6,9 C 81 % 1030,3 hPa 0,0 mm 4,4 km/h (1 Bft) O-NO 67 3,0 C 4,4 km/h (1 Bft)
02.12.2015 12:40 6,0 C 6,8 C 81 % 1030,3 hPa 0,0 mm 3,9 km/h (1 Bft) O-SO 112 3,0 C 0,0 km/h (0 Bft)
02.12.2015 12:45 6,0 C 6,8 C 81 % 1030,3 hPa 0,0 mm 4,1 km/h (1 Bft) N-NO 22 3,0 C 6,0 km/h (2 Bft)
02.12.2015 12:50 6,0 C 6,8 C 81 % 1030,3 hPa 0,0 mm 3,4 km/h (1 Bft) O 90 3,0 C 4,9 km/h (1 Bft)
02.12.2015 12:55 6,1 C 6,8 C 81 % 1030,4 hPa 0,0 mm 4,1 km/h (1 Bft) NO 45 3,1 C 7,0 km/h (2 Bft)
02.12.2015 13:00 6,0 C 6,8 C 81 % 1030,4 hPa 0,0 mm 4,4 km/h (1 Bft) NO 45 3,0 C 2,8 km/h (1 Bft)
02.12.2015 13:05 6,0 C 6,7 C 81 % 1030,4 hPa 0,0 mm 4,1 km/h (1 Bft) N-NO 22 3,0 C 5,2 km/h (1 Bft)
02.12.2015 13:10 6,1 C 6,8 C 81 % 1030,4 hPa 0,0 mm 1,8 km/h (1 Bft) N-NO 22 3,1 C 0,0 km/h (0 Bft)
02.12.2015 13:15 6,1 C 6,8 C 81 % 1030,3 hPa 0,0 mm 1,6 km/h (1 Bft) NO 45 3,1 C 0,0 km/h (0 Bft)
02.12.2015 13:20 6,0 C 6,8 C 80 % 1030,3 hPa 0,0 mm 2,8 km/h (1 Bft) NO 45 2,8 C 7,8 km/h (2 Bft)
02.12.2015 13:25 5,9 C 6,7 C 82 % 1030,3 hPa 0,0 mm 3,6 km/h (1 Bft) O-NO 67 3,1 C 3,1 km/h (1 Bft)
02.12.2015 13:30 5,9 C 6,6 C 82 % 1030,3 hPa 0,0 mm 3,6 km/h (1 Bft) O-NO 67 3,1 C 4,9 km/h (1 Bft)
02.12.2015 13:35 5,9 C 6,5 C 82 % 1030,4 hPa 0,0 mm 3,6 km/h (1 Bft) O-NO 67 3,1 C 4,7 km/h (1 Bft)
02.12.2015 13:40 6,0 C 6,6 C 81 % 1030,4 hPa 0,0 mm 2,1 km/h (1 Bft) O-NO 67 3,0 C 0,0 km/h (0 Bft)
02.12.2015 13:45 6,0 C 6,7 C 81 % 1030,4 hPa 0,0 mm 0,8 km/h (0 Bft) N-NO 22 3,0 C 4,7 km/h (1 Bft)
02.12.2015 13:50 6,0 C 6,7 C 81 % 1030,4 hPa 0,0 mm 1,6 km/h (1 Bft) O-NO 67 3,0 C 2,6 km/h (1 Bft)
02.12.2015 13:55 6,0 C 6,6 C 81 % 1030,4 hPa 0,0 mm 3,1 km/h (1 Bft) N-NO 22 3,0 C 5,2 km/h (1 Bft)
02.12.2015 14:00 6,0 C 6,5 C 81 % 1030,4 hPa 0,0 mm 3,4 km/h (1 Bft) NO 45 3,0 C 3,6 km/h (1 Bft)
02.12.2015 14:05 6,0 C 6,5 C 81 % 1030,4 hPa 0,0 mm 2,8 km/h (1 Bft) O-NO 67 3,0 C 7,0 km/h (2 Bft)
02.12.2015 14:10 6,0 C 6,6 C 81 % 1030,4 hPa 0,0 mm 2,8 km/h (1 Bft) O-SO 112 3,0 C 3,9 km/h (1 Bft)
02.12.2015 14:15 6,0 C 6,6 C 81 % 1030,2 hPa 0,0 mm 2,8 km/h (1 Bft) O-NO 67 3,0 C 4,1 km/h (1 Bft)
02.12.2015 14:20 6,0 C 6,6 C 81 % 1030,2 hPa 0,0 mm 3,1 km/h (1 Bft) O-NO 67 3,0 C 3,1 km/h (1 Bft)
02.12.2015 14:25 6,0 C 6,6 C 80 % 1030,2 hPa 0,0 mm 3,1 km/h (1 Bft) O-SO 112 2,8 C 0,0 km/h (0 Bft)
02.12.2015 14:30 6,0 C 6,6 C 80 % 1030,2 hPa 0,0 mm 1,6 km/h (1 Bft) O 90 2,8 C 0,0 km/h (0 Bft)
02.12.2015 14:35 6,0 C 6,5 C 80 % 1030,2 hPa 0,0 mm 3,1 km/h (1 Bft) O-NO 67 2,8 C 9,6 km/h (2 Bft)
02.12.2015 14:40 5,9 C 6,4 C 82 % 1030,2 hPa 0,0 mm 4,7 km/h (1 Bft) SO 135 3,1 C 14,2 km/h (3 Bft)
02.12.2015 14:45 5,9 C 6,4 C 82 % 1030,2 hPa 0,0 mm 4,4 km/h (1 Bft) O-NO 67 3,1 C 6,2 km/h (2 Bft)
02.12.2015 14:50 5,9 C 6,4 C 82 % 1030,2 hPa 0,0 mm 3,6 km/h (1 Bft) NO 45 3,1 C 6,2 km/h (2 Bft)
02.12.2015 14:55 5,9 C 6,3 C 82 % 1030,2 hPa 0,0 mm 4,4 km/h (1 Bft) NO 45 3,1 C 10,4 km/h (2 Bft)
02.12.2015 15:00 5,8 C 6,1 C 82 % 1030,2 hPa 0,0 mm 6,0 km/h (2 Bft) N-NO 22 3,0 C 12,7 km/h (3 Bft)
02.12.2015 15:05 5,8 C 6,0 C 82 % 1030,2 hPa 0,0 mm 6,0 km/h (2 Bft) NO 45 3,0 C 3,9 km/h (1 Bft)
02.12.2015 15:10 5,8 C 6,1 C 82 % 1030,2 hPa 0,0 mm 5,4 km/h (1 Bft) NO 45 3,0 C 5,2 km/h (1 Bft)
02.12.2015 15:15 5,8 C 6,1 C 82 % 1030,2 hPa 0,0 mm 3,6 km/h (1 Bft) N-NO 22 3,0 C 3,6 km/h (1 Bft)
02.12.2015 15:20 5,9 C 6,1 C 82 % 1030,2 hPa 0,0 mm 2,1 km/h (1 Bft) O-NO 67 3,1 C 3,6 km/h (1 Bft)
02.12.2015 15:25 5,9 C 6,1 C 82 % 1030,2 hPa 0,0 mm 2,3 km/h (1 Bft) N-NW 337 3,1 C 0,0 km/h (0 Bft)
02.12.2015 15:30 5,9 C 6,1 C 82 % 1030,2 hPa 0,0 mm 3,1 km/h (1 Bft) O-NO 67 3,1 C 7,3 km/h (2 Bft)
02.12.2015 15:35 5,9 C 6,1 C 82 % 1030,2 hPa 0,0 mm 3,9 km/h (1 Bft) N-NO 22 3,1 C 3,1 km/h (1 Bft)
02.12.2015 15:40 5,8 C 6,0 C 82 % 1030,2 hPa 0,0 mm 4,9 km/h (1 Bft) O 90 3,0 C 4,4 km/h (1 Bft)
02.12.2015 15:45 5,8 C 5,9 C 82 % 1030,2 hPa 0,0 mm 4,4 km/h (1 Bft) N-NO 22 3,0 C 6,7 km/h (2 Bft)
02.12.2015 15:50 5,7 C 5,8 C 82 % 1030,2 hPa 0,0 mm 4,7 km/h (1 Bft) N-NO 22 2,9 C 4,4 km/h (1 Bft)
02.12.2015 15:55 5,7 C 5,8 C 82 % 1030,2 hPa 0,0 mm 5,2 km/h (1 Bft) O-NO 67 2,9 C 7,3 km/h (2 Bft)
02.12.2015 16:00 5,7 C 5,7 C 84 % 1030,2 hPa 0,0 mm 4,4 km/h (1 Bft) O-NO 67 3,2 C 4,4 km/h (1 Bft)
02.12.2015 16:05 5,7 C 5,7 C 84 % 1030,2 hPa 0,0 mm 3,6 km/h (1 Bft) O-NO 67 3,2 C 4,9 km/h (1 Bft)
02.12.2015 16:10 5,6 C 5,7 C 82 % 1030,2 hPa 0,0 mm 1,8 km/h (1 Bft) NO 45 2,8 C 6,5 km/h (2 Bft)
02.12.2015 16:15 5,6 C 5,6 C 84 % 1030,1 hPa 0,0 mm 2,1 km/h (1 Bft) N-NO 22 3,1 C 0,0 km/h (0 Bft)
02.12.2015 16:20 5,6 C 5,6 C 84 % 1030,1 hPa 0,0 mm 2,6 km/h (1 Bft) N-NO 22 3,1 C 3,6 km/h (1 Bft)
02.12.2015 16:25 5,6 C 5,6 C 84 % 1030,1 hPa 0,0 mm 2,6 km/h (1 Bft) O-NO 67 3,1 C 4,9 km/h (1 Bft)
02.12.2015 16:30 5,5 C 5,5 C 84 % 1030,1 hPa 0,0 mm 2,8 km/h (1 Bft) O-SO 112 3,0 C 0,0 km/h (0 Bft)
02.12.2015 16:35 5,5 C 5,5 C 85 % 1030,0 hPa 0,0 mm 2,6 km/h (1 Bft) N-NO 22 3,2 C 4,9 km/h (1 Bft)
02.12.2015 16:40 5,4 C 5,4 C 85 % 1030,0 hPa 0,0 mm 3,1 km/h (1 Bft) N-NO 22 3,1 C 0,0 km/h (0 Bft)
02.12.2015 16:45 5,5 C 5,4 C 85 % 1030,0 hPa 0,0 mm 3,6 km/h (1 Bft) O-NO 67 3,2 C 4,7 km/h (1 Bft)
02.12.2015 16:50 5,4 C 5,4 C 85 % 1030,0 hPa 0,0 mm 1,8 km/h (1 Bft) NO 45 3,1 C 4,4 km/h (1 Bft)
02.12.2015 16:55 5,4 C 5,4 C 85 % 1029,9 hPa 0,0 mm 1,8 km/h (1 Bft) O-NO 67 3,1 C 0,0 km/h (0 Bft)
02.12.2015 17:00 5,3 C 5,3 C 85 % 1029,9 hPa 0,0 mm 3,1 km/h (1 Bft) NO 45 3,0 C 6,0 km/h (2 Bft)
02.12.2015 17:05 5,3 C 5,3 C 85 % 1029,9 hPa 0,0 mm 2,3 km/h (1 Bft) N-NO 22 3,0 C 0,0 km/h (0 Bft)
02.12.2015 17:10 5,3 C 5,2 C 85 % 1029,9 hPa 0,0 mm 0,8 km/h (0 Bft) NO 45 3,0 C 0,0 km/h (0 Bft)
02.12.2015 17:15 5,3 C 5,2 C 86 % 1029,8 hPa 0,0 mm 0,0 km/h (0 Bft) N-NO 22 3,2 C 0,0 km/h (0 Bft)
02.12.2015 17:20 5,3 C 5,2 C 86 % 1029,8 hPa 0,0 mm 0,8 km/h (0 Bft) O-NO 67 3,2 C 4,4 km/h (1 Bft)
02.12.2015 17:25 5,3 C 5,2 C 86 % 1029,8 hPa 0,0 mm 2,1 km/h (1 Bft) O-NO 67 3,2 C 7,0 km/h (2 Bft)
02.12.2015 17:30 5,3 C 5,2 C 86 % 1029,8 hPa 0,0 mm 2,8 km/h (1 Bft) O-SO 112 3,2 C 0,0 km/h (0 Bft)
02.12.2015 17:35 5,3 C 5,2 C 86 % 1029,8 hPa 0,0 mm 1,8 km/h (1 Bft) O-NO 67 3,2 C 0,0 km/h (0 Bft)
02.12.2015 17:40 5,2 C 5,2 C 86 % 1029,8 hPa 0,0 mm 1,3 km/h (1 Bft) O-NO 67 3,1 C 2,8 km/h (1 Bft)
02.12.2015 17:45 5,2 C 5,2 C 86 % 1029,8 hPa 0,0 mm 1,0 km/h (0 Bft) W-SW 247 3,1 C 2,6 km/h (1 Bft)
02.12.2015 17:50 5,2 C 5,2 C 86 % 1029,8 hPa 0,0 mm 0,5 km/h (0 Bft) NO 45 3,1 C 0,0 km/h (0 Bft)
02.12.2015 17:51 5,2 C 5,2 C 86 % 1029,8 hPa 0,0 mm 0,5 km/h (0 Bft) NO 45 3,1 C 0,0 km/h (0 Bft)
02.12.2015 17:55 5,2 C 5,2 C 86 % 1030,0 hPa 0,0 mm 0,8 km/h (0 Bft) O 90 3,1 C 3,6 km/h (1 Bft)
02.12.2015 18:00 5,2 C 5,1 C 86 % 1030,0 hPa 0,0 mm 2,1 km/h (1 Bft) N-NO 22 3,1 C 4,9 km/h (1 Bft)
02.12.2015 18:05 5,1 C 5,1 C 86 % 1030,0 hPa 0,0 mm 3,6 km/h (1 Bft) O 90 3,0 C 4,7 km/h (1 Bft)
02.12.2015 18:10 5,1 C 5,1 C 86 % 1030,0 hPa 0,0 mm 3,4 km/h (1 Bft) O 90 3,0 C 5,2 km/h (1 Bft)
02.12.2015 18:15 5,0 C 4,9 C 86 % 1029,8 hPa 0,0 mm 1,6 km/h (1 Bft) SW 225 2,9 C 0,0 km/h (0 Bft)
02.12.2015 18:20 5,0 C 4,9 C 86 % 1029,8 hPa 0,0 mm 0,8 km/h (0 Bft) S-SO 157 2,9 C 0,0 km/h (0 Bft)
02.12.2015 18:25 5,0 C 4,9 C 86 % 1029,8 hPa 0,0 mm 0,3 km/h (0 Bft) O 90 2,9 C 0,0 km/h (0 Bft)
02.12.2015 18:30 4,9 C 4,8 C 86 % 1029,8 hPa 0,0 mm 0,5 km/h (0 Bft) W-SW 247 2,8 C 3,4 km/h (1 Bft)
02.12.2015 18:35 4,8 C 4,7 C 86 % 1029,8 hPa 0,0 mm 0,5 km/h (0 Bft) W-SW 247 2,7 C 0,0 km/h (0 Bft)
02.12.2015 18:40 4,7 C 4,6 C 86 % 1029,8 hPa 0,0 mm 1,3 km/h (1 Bft) S 180 2,6 C 2,6 km/h (1 Bft)
02.12.2015 18:45 4,6 C 4,5 C 86 % 1029,8 hPa 0,0 mm 1,3 km/h (1 Bft) W 270 2,5 C 4,1 km/h (1 Bft)
02.12.2015 18:50 4,4 C 4,4 C 84 % 1029,8 hPa 0,0 mm 1,3 km/h (1 Bft) SW 225 1,9 C 3,9 km/h (1 Bft)
02.12.2015 18:55 4,4 C 4,3 C 87 % 1029,8 hPa 0,0 mm 1,3 km/h (1 Bft) W 270 2,4 C 3,4 km/h (1 Bft)
02.12.2015 19:00 4,3 C 4,2 C 87 % 1029,8 hPa 0,0 mm 1,3 km/h (1 Bft) N-NO 22 2,3 C 0,0 km/h (0 Bft)
02.12.2015 19:05 4,3 C 4,2 C 87 % 1029,8 hPa 0,0 mm 0,5 km/h (0 Bft) N-NW 337 2,3 C 0,0 km/h (0 Bft)
02.12.2015 19:10 4,1 C 4,0 C 87 % 1029,8 hPa 0,0 mm 0,8 km/h (0 Bft) S 180 2,1 C 0,0 km/h (0 Bft)
02.12.2015 19:15 4,0 C 3,9 C 87 % 1029,7 hPa 0,0 mm 1,0 km/h (0 Bft) SW 225 2,0 C 0,0 km/h (0 Bft)
02.12.2015 19:20 3,9 C 3,8 C 87 % 1029,7 hPa 0,0 mm 0,3 km/h (0 Bft) W 270 1,9 C 3,1 km/h (1 Bft)
02.12.2015 19:25 3,9 C 3,7 C 87 % 1029,7 hPa 0,0 mm 1,0 km/h (0 Bft) SW 225 1,9 C 4,1 km/h (1 Bft)
02.12.2015 19:30 3,7 C 3,6 C 85 % 1029,7 hPa 0,0 mm 1,6 km/h (1 Bft) W-SW 247 1,4 C 0,0 km/h (0 Bft)
02.12.2015 19:35 3,7 C 3,6 C 87 % 1029,8 hPa 0,0 mm 1,3 km/h (1 Bft) W-NW 292 1,7 C 2,8 km/h (1 Bft)
02.12.2015 19:40 3,4 C 3,4 C 85 % 1029,8 hPa 0,0 mm 1,0 km/h (0 Bft) W-SW 247 1,1 C 0,0 km/h (0 Bft)
02.12.2015 19:45 3,3 C 3,3 C 85 % 1029,8 hPa 0,0 mm 2,1 km/h (1 Bft) W-SW 247 1,0 C 5,7 km/h (1 Bft)
02.12.2015 19:50 3,2 C 3,2 C 85 % 1029,8 hPa 0,0 mm 2,3 km/h (1 Bft) W-SW 247 0,9 C 2,8 km/h (1 Bft)
02.12.2015 19:55 3,2 C 3,1 C 85 % 1029,8 hPa 0,0 mm 2,6 km/h (1 Bft) W-SW 247 0,9 C 0,0 km/h (0 Bft)
02.12.2015 20:00 3,2 C 3,0 C 88 % 1029,8 hPa 0,0 mm 1,6 km/h (1 Bft) W-SW 247 1,4 C 0,0 km/h (0 Bft)
02.12.2015 20:05 3,1 C 2,9 C 88 % 1029,8 hPa 0,0 mm 1,3 km/h (1 Bft) W-SW 247 1,3 C 0,0 km/h (0 Bft)
02.12.2015 20:10 3,0 C 2,8 C 88 % 1029,8 hPa 0,0 mm 1,6 km/h (1 Bft) W-SW 247 1,2 C 3,6 km/h (1 Bft)
02.12.2015 20:15 2,9 C 2,7 C 88 % 1029,8 hPa 0,0 mm 1,3 km/h (1 Bft) W-SW 247 1,1 C 0,0 km/h (0 Bft)
02.12.2015 20:20 2,7 C 2,5 C 88 % 1029,8 hPa 0,0 mm 1,0 km/h (0 Bft) S-SW 202 0,9 C 0,0 km/h (0 Bft)
02.12.2015 20:25 2,7 C 2,5 C 88 % 1029,8 hPa 0,0 mm 0,3 km/h (0 Bft) O-SO 112 0,9 C 0,0 km/h (0 Bft)
02.12.2015 20:30 2,5 C 2,4 C 86 % 1029,8 hPa 0,0 mm 1,8 km/h (1 Bft) SW 225 0,4 C 7,3 km/h (2 Bft)
02.12.2015 20:35 2,4 C 2,3 C 86 % 1030,0 hPa 0,0 mm 3,9 km/h (1 Bft) SW 225 0,3 C 6,7 km/h (2 Bft)
02.12.2015 20:40 2,4 C 2,0 C 86 % 1030,0 hPa 0,0 mm 6,5 km/h (2 Bft) S-SW 202 0,3 C 7,5 km/h (2 Bft)
02.12.2015 20:45 2,3 C 1,9 C 86 % 1030,0 hPa 0,0 mm 7,0 km/h (2 Bft) SW 225 0,2 C 6,5 km/h (2 Bft)
02.12.2015 20:50 2,3 C 1,9 C 86 % 1030,0 hPa 0,0 mm 7,0 km/h (2 Bft) S 180 0,2 C 3,4 km/h (1 Bft)
02.12.2015 20:55 2,3 C 2,0 C 86 % 1030,2 hPa 0,0 mm 5,7 km/h (1 Bft) SW 225 0,2 C 7,3 km/h (2 Bft)
02.12.2015 21:00 2,2 C 1,9 C 86 % 1030,2 hPa 0,0 mm 6,2 km/h (2 Bft) SW 225 0,1 C 9,3 km/h (2 Bft)
02.12.2015 21:05 2,2 C 1,8 C 87 % 1030,2 hPa 0,0 mm 7,5 km/h (2 Bft) SW 225 0,3 C 9,6 km/h (2 Bft)
02.12.2015 21:10 2,3 C 1,9 C 87 % 1030,2 hPa 0,0 mm 7,0 km/h (2 Bft) S-SW 202 0,4 C 9,8 km/h (2 Bft)
02.12.2015 21:15 2,2 C 1,8 C 87 % 1030,2 hPa 0,0 mm 7,0 km/h (2 Bft) S 180 0,3 C 7,8 km/h (2 Bft)
02.12.2015 21:20 2,2 C 1,9 C 87 % 1030,2 hPa 0,0 mm 6,5 km/h (2 Bft) SW 225 0,3 C 0,0 km/h (0 Bft)
02.12.2015 21:25 2,2 C 2,0 C 87 % 1030,2 hPa 0,0 mm 5,2 km/h (1 Bft) W-SW 247 0,3 C 5,4 km/h (1 Bft)
02.12.2015 21:30 2,2 C 2,2 C 87 % 1030,2 hPa 0,0 mm 2,3 km/h (1 Bft) SW 225 0,3 C 4,7 km/h (1 Bft)
02.12.2015 21:35 2,1 C 2,2 C 87 % 1030,3 hPa 0,0 mm 3,4 km/h (1 Bft) S-SW 202 0,2 C 3,6 km/h (1 Bft)
02.12.2015 21:40 2,1 C 2,0 C 87 % 1030,3 hPa 0,0 mm 4,4 km/h (1 Bft) S-SW 202 0,2 C 2,8 km/h (1 Bft)
02.12.2015 21:45 2,0 C 2,0 C 87 % 1030,3 hPa 0,0 mm 4,1 km/h (1 Bft) SW 225 0,1 C 6,2 km/h (2 Bft)
02.12.2015 21:50 1,9 C 1,9 C 87 % 1030,3 hPa 0,0 mm 4,4 km/h (1 Bft) SW 225 -0,0 C 13,5 km/h (3 Bft)
02.12.2015 21:55 1,8 C 1,7 C 87 % 1030,5 hPa 0,0 mm 4,7 km/h (1 Bft) S 180 -0,1 C 3,6 km/h (1 Bft)
02.12.2015 22:00 1,7 C 1,7 C 87 % 1030,5 hPa 0,0 mm 3,9 km/h (1 Bft) S 180 -0,2 C 4,9 km/h (1 Bft)
02.12.2015 22:05 1,7 C 1,6 C 87 % 1030,5 hPa 0,0 mm 2,3 km/h (1 Bft) SW 225 -0,2 C 0,0 km/h (0 Bft)
02.12.2015 22:10 1,7 C 1,7 C 87 % 1030,5 hPa 0,0 mm 1,0 km/h (0 Bft) S 180 -0,2 C 0,0 km/h (0 Bft)
02.12.2015 22:15 1,7 C 1,7 C 87 % 1030,5 hPa 0,0 mm 0,3 km/h (0 Bft) W-SW 247 -0,2 C 0,0 km/h (0 Bft)
02.12.2015 22:20 1,7 C 1,7 C 87 % 1030,5 hPa 0,0 mm 0,3 km/h (0 Bft) S 180 -0,2 C 3,9 km/h (1 Bft)
02.12.2015 22:25 1,7 C 1,7 C 87 % 1030,5 hPa 0,0 mm 0,5 km/h (0 Bft) S 180 -0,2 C 0,0 km/h (0 Bft)
02.12.2015 22:30 1,7 C 1,7 C 87 % 1030,5 hPa 0,0 mm 2,1 km/h (1 Bft) S 180 -0,2 C 3,1 km/h (1 Bft)
02.12.2015 22:35 1,7 C 1,7 C 87 % 1030,4 hPa 0,0 mm 2,6 km/h (1 Bft) S 180 -0,2 C 2,8 km/h (1 Bft)
02.12.2015 22:40 1,7 C 1,6 C 88 % 1030,4 hPa 0,0 mm 2,6 km/h (1 Bft) S-SO 157 -0,1 C 2,6 km/h (1 Bft)
02.12.2015 22:45 1,7 C 1,6 C 88 % 1030,4 hPa 0,0 mm 3,4 km/h (1 Bft) S 180 -0,1 C 4,1 km/h (1 Bft)
02.12.2015 22:50 1,5 C 1,5 C 88 % 1030,4 hPa 0,0 mm 2,1 km/h (1 Bft) W 270 -0,3 C 3,1 km/h (1 Bft)
02.12.2015 22:55 1,5 C 1,5 C 88 % 1030,3 hPa 0,0 mm 1,0 km/h (0 Bft) W-SW 247 -0,3 C 2,6 km/h (1 Bft)
02.12.2015 23:00 1,2 C 1,1 C 90 % 1030,3 hPa 0,0 mm 0,5 km/h (0 Bft) SW 225 -0,3 C 0,0 km/h (0 Bft)
02.12.2015 23:05 0,8 C 0,7 C 90 % 1030,3 hPa 0,0 mm 0,3 km/h (0 Bft) S 180 -0,6 C 0,0 km/h (0 Bft)
02.12.2015 23:10 0,4 C 0,1 C 90 % 1030,3 hPa 0,0 mm 0,0 km/h (0 Bft) S-SO 157 -1,0 C 0,0 km/h (0 Bft)
02.12.2015 23:15 0,2 C -0,2 C 90 % 1030,2 hPa 0,0 mm 0,0 km/h (0 Bft) S 180 -1,2 C 0,0 km/h (0 Bft)
02.12.2015 23:20 -0,3 C -0,7 C 89 % 1030,2 hPa 0,0 mm 0,0 km/h (0 Bft) S-SO 157 -1,9 C 0,0 km/h (0 Bft)
02.12.2015 23:25 -0,4 C -0,9 C 89 % 1030,2 hPa 0,0 mm 0,0 km/h (0 Bft) S 180 -2,0 C 0,0 km/h (0 Bft)
02.12.2015 23:30 -0,5 C -1,1 C 89 % 1030,2 hPa 0,0 mm 0,0 km/h (0 Bft) S-SO 157 -2,1 C 0,0 km/h (0 Bft)
02.12.2015 23:35 -0,8 C -1,4 C 89 % 1030,2 hPa 0,0 mm 0,0 km/h (0 Bft) S-SO 157 -2,4 C 0,0 km/h (0 Bft)
02.12.2015 23:40 -1,0 C -1,6 C 89 % 1030,2 hPa 0,0 mm 0,0 km/h (0 Bft) S-SO 157 -2,6 C 0,0 km/h (0 Bft)
02.12.2015 23:45 -1,0 C -1,6 C 89 % 1030,2 hPa 0,0 mm 0,0 km/h (0 Bft) SW 225 -2,6 C 0,0 km/h (0 Bft)
02.12.2015 23:50 -1,0 C -1,6 C 89 % 1030,2 hPa 0,0 mm 0,5 km/h (0 Bft) S-SO 157 -2,6 C 0,0 km/h (0 Bft)
02.12.2015 23:52 -1,0 C -1,6 C 89 % 1030,2 hPa 0,0 mm 0,5 km/h (0 Bft) S-SO 157 -2,6 C 0,0 km/h (0 Bft)
02.12.2015 23:55 -1,0 C -1,6 C 89 % 1030,1 hPa 0,0 mm 0,5 km/h (0 Bft) S-SO 157 -2,6 C 0,0 km/h (0 Bft)
_ Min-Zeit 23:55 23:55 00:45 19:30 - 23:45 - - 23:55 23:55
Minimum _ -1,0 C -1,6 C 77 % 1029,7 hPa - 0,0 km/h (0 Bft) - - -2,6 C 0,0 km/h (0 Bft)
_ Max-Zeit 00:15 12:25 23:15 01:10 23:55 21:05 - - 16:05 14:40
Maximum _ 6,6 C 7,1 C 90 % 1031,0 hPa 0,0 mm 7,5 km/h
SW (2 Bft)
- - 3,2 C 14,2 km/h
SO (3 Bft)
Durchschnitt _ 4,5 C 4,6 C 84 % 1030,3 hPa #0,0 mm 2,1 km/h (1 Bft) O-NO - 1,9 C 2,8 km/h (1 Bft)